[[{"header":{"parameterUnit":"m.s-1","parameterCategory":2,"la1":30.2991,"la2":30.254,"lo1":-89.0895,"lo2":-89.0444,"dy":0.0017,"dx":0.0017,"nx":28,"ny":28,"refTime":"2025-11-19T09:00:00:Z","depth":"0","parameterNumber":2,"parameterNumberName":"U-component_of_CURRENTS"},"data":[0,0,0,0,0,0,0,0,0,0,0,0,0,0,0,0,0,0,0,0,0,0,0,0,0,0,0,0,0,0,0,0,0,0,0,0,0,0,0,0,0,0,0,0,0,0,0,0,0,0,0,0,0,0,0,0,0,0,0.1995,0.1995,0,0.2039,0.2039,0.2039,0.2048,0.2048,0.2048,0.2048,0.2045,0.2045,0.2045,0,0,0,0,0,0,0,0,0,0,0,0,0,0.192,0.1921,0.1995,0.1995,0.1996,0.2039,0.2039,0.2039,0.2048,0.2048,0.2048,0.2048,0.2045,0.2045,0.2045,0,0,0,0,0,0,0,0,0,0,0,0,0,0.1955,0.1922,0.1995,0.2007,0.2009,0.2038,0.2039,0.2039,0.2048,0.2048,0.2048,0.2048,0.2045,0.2045,0.2045,0.205,0,0,0.2045,0.2045,0,0,0,0,0,0,0,0,0.1953,0.1958,0.2005,0.2006,0.2008,0.204,0.2012,0.2041,0.2048,0.2031,0.2048,0.2048,0.204,0.2041,0.2047,0.205,0.205,0.2045,0.2046,0.2046,0.2046,0,0,0,0,0,0,0,0.1951,0.1956,0.201,0.2006,0.2008,0.2011,0.2016,0.2017,0.2034,0.2033,0.2034,0.2042,0.2041,0.2047,0.2047,0.205,0.2045,0.2046,0.2046,0.2046,0.2081,0.2082,0,0,0,0,0,0,0.195,0.1954,0.2009,0.2012,0.1982,0.2013,0.2018,0.2028,0.2035,0.2037,0.2042,0.2043,0.2047,0.2047,0.2047,0.2073,0.2046,0.2046,0.2046,0.208,0.2082,0.2083,0,0,0,0,0,0,0.1948,0.1954,0.2007,0.1985,0.1992,0.2015,0.2026,0.2029,0.2039,0.2043,0.2044,0.2049,0.2047,0.2047,0.2058,0.2072,0.2046,0.2046,0.2079,0.2081,0.2082,0.2112,0,0,0,0,0,0,0.1946,0.1953,0.1958,0.1985,0.1993,0.2029,0.2027,0.203,0.2045,0.2046,0.2049,0.2049,0.2047,0.2058,0.2058,0.2072,0.2046,0.2078,0.208,0.2082,0.211,0.2114,0.2117,0,0,0,0,0,0.1943,0.1951,0.1958,0.1965,0.2,0.2029,0.2034,0.2047,0.2046,0.2054,0.2059,0.2049,0.2069,0.2059,0.2058,0.2073,0.2077,0.208,0.2081,0.2108,0.2113,0.2117,0,0,0,0,0,0,0.1918,0.1954,0.1962,0.198,0.2005,0.2032,0.2041,0.205,0.2061,0.2059,0.2059,0.2059,0.2076,0.207,0.206,0.2089,0.2072,0.2074,0.2092,0.2097,0.2101,0.2107,0.2046,0,0,0,0,0,0.1917,0.1933,0.1967,0.198,0.1994,0.2018,0.203,0.2042,0.2057,0.2062,0.2067,0.2072,0.2085,0.2087,0.2095,0.2107,0.2149,0.2117,0.2121,0.2124,0.213,0.22,0.2211,0.2089,0.2089,0.2089,0,0,0.1909,0.1932,0.194,0.1977,0.1995,0.202,0.2024,0.2047,0.2066,0.2059,0.208,0.2086,0.2092,0.2111,0.2117,0.2107,0.2191,0.2127,0.213,0.2133,0.2203,0.2215,0.2226,0.209,0.209,0.209,0,0,0.1907,0.1926,0.1942,0.1967,0.2002,0.202,0.2028,0.2059,0.2072,0.2094,0.2098,0.2115,0.2125,0.214,0.2146,0.2176,0.2211,0.2176,0.2198,0.2266,0.2277,0.2286,0.2398,0.2417,0.2175,0.2176,0.2176,0,0.1896,0.1925,0.195,0.1976,0.1998,0.2021,0.2046,0.2065,0.2094,0.211,0.2103,0.2145,0.2142,0.2179,0.2188,0.2185,0.2246,0.2178,0.2272,0.2283,0.2292,0.2403,0.2424,0.2177,0.2177,0.2177,0.2177,0,0.1913,0.1937,0.1949,0.1992,0.2016,0.2041,0.2076,0.2097,0.2112,0.2134,0.2174,0.2183,0.2212,0.2212,0.2206,0.227,0.2302,0.2273,0.2261,0.2307,0.2421,0.2443,0.218,0.2179,0.2178,0.2178,0,0,0.1886,0.1948,0.1953,0.1976,0.2028,0.2049,0.2086,0.213,0.2166,0.2185,0.2239,0.2247,0.2263,0.2272,0.2275,0.232,0.2445,0.2325,0.2327,0.2439,0.2644,0.2654,0.2679,0.2436,0.2439,0.2441,0.2712,0,0.1892,0.194,0.1971,0.2012,0.2041,0.2078,0.2113,0.2154,0.2195,0.2253,0.2273,0.2325,0.2285,0.2316,0.2352,0.2429,0.2497,0.2377,0.258,0.2587,0.2592,0.2701,0.2641,0.2874,0.2733,0.2737,0.2739,0,0.1898,0.1933,0.1974,0.2034,0.205,0.2072,0.2143,0.2183,0.2264,0.2302,0.2354,0.2391,0.2472,0.2425,0.2585,0.2517,0.2583,0.2632,0.2643,0.2653,0.2636,0.2798,0.2919,0.2843,0.2772,0.277,0.2767,0,0.1872,0.1934,0.1965,0.1985,0.2055,0.2074,0.2112,0.2189,0.2245,0.235,0.2422,0.2501,0.2587,0.2657,0.2757,0.2692,0.2949,0.2874,0.2953,0.2957,0.2943,0.294,0.3012,0.2989,0.2989,0.2988,0.2987,0,0.1869,0.1892,0.1951,0.1967,0.2005,0.206,0.2124,0.2173,0.2282,0.2367,0.2448,0.2547,0.2649,0.2796,0.2838,0.2998,0.3029,0.2999,0.3031,0.2955,0.295,0.291,0.2856,0.2998,0.2996,0.2994,0.2992,0,0.1832,0.1875,0.1907,0.1971,0.1992,0.2016,0.212,0.2174,0.229,0.2416,0.2465,0.2644,0.2833,0.2952,0.3125,0.3139,0.3191,0.3296,0.3227,0.3242,0.3183,0.3134,0.3138,0.3037,0.3431,0.3433,0.3435,0,0.1816,0.1832,0.1891,0.1911,0.1934,0.1993,0.2037,0.215,0.2224,0.2465,0.2522,0.2766,0.2908,0.3206,0.3299,0.3452,0.3291,0.3468,0.3295,0.3213,0.3182,0.3006,0.2904,0.3324,0.3324,0.3325,0.3325,0,0.178,0.1797,0.1825,0.1871,0.1905,0.1963,0.2039,0.2099,0.2258,0.2391,0.2583,0.2729,0.3041,0.3194,0.3422,0.3472,0.3306,0.3479,0.341,0.3129,0.2929,0.2835,0.3141,0.3329,0.3329,0.3329,0.3328,0.3328,0.174,0.1749,0.179,0.183,0.1869,0.1917,0.1942,0.205,0.217,0.2352,0.2541,0.2742,0.3054,0.3355,0.3394,0.3448,0.3341,0.3368,0.3337,0.3181,0.2994,0.3328,0.3516,0.3517,0.3517,0.3518,0.3518,0,0.1696,0.1722,0.1755,0.179,0.1805,0.1854,0.193,0.1951,0.2049,0.2273,0.244,0.2782,0.301,0.321,0.3408,0.3334,0.3136,0.3253,0.2982,0.29,0.325,0.3151,0.3249,0.3249,0.3249,0.3249,0.3249,0.3249,0.1677,0.1692,0.1719,0.1725,0.1744,0.1739,0.1762,0.1808,0.1934,0.2143,0.2339,0.2549,0.2948,0.3292,0.3322,0.3235,0.2939,0.2867,0.2787,0.304,0.3046,0.3051,0.2944,0.2996,0.2996,0.2317,0.2312,0.2308]},{"header":{"parameterUnit":"m.s-1","parameterCategory":2,"la1":30.2991,"la2":30.254,"lo1":-89.0895,"lo2":-89.0444,"dy":0.0017,"dx":0.0017,"nx":28,"ny":28,"refTime":"2025-11-19T09:00:00:Z","depth":"0","parameterNumber":3,"parameterNumberName":"V-component_of_CURRENTS"},"data":[0,0,0,0,0,0,0,0,0,0,0,0,0,0,0,0,0,0,0,0,0,0,0,0,0,0,0,0,0,0,0,0,0,0,0,0,0,0,0,0,0,0,0,0,0,0,0,0,0,0,0,0,0,0,0,0,0,0,0.0056,0.0055,0,-0.0009,-0.0009,-0.001,-0.0061,-0.0061,-0.0062,-0.0062,-0.0161,-0.0164,-0.0166,0,0,0,0,0,0,0,0,0,0,0,0,0,0.0102,0.0102,0.0056,0.0055,0.0054,-0.0009,-0.001,-0.001,-0.0061,-0.0061,-0.0062,-0.0062,-0.0161,-0.0163,-0.0166,0,0,0,0,0,0,0,0,0,0,0,0,0,0.0064,0.0102,0.0056,0.0022,0.0019,-0.0008,-0.001,-0.0011,-0.0061,-0.0062,-0.0062,-0.0063,-0.016,-0.0163,-0.0166,-0.0174,0,0,-0.0177,-0.0178,0,0,0,0,0,0,0,0,0.0066,0.0062,0.0028,0.0025,0.002,-0.0027,-0.003,-0.0067,-0.0061,-0.0031,-0.0062,-0.0063,-0.0119,-0.0125,-0.0137,-0.0179,-0.0183,-0.0177,-0.0179,-0.018,-0.0181,0,0,0,0,0,0,0,0.0069,0.0064,0.003,0.0027,0.0023,-0.0001,-0.0007,-0.0037,-0.0072,-0.0034,-0.0038,-0.0044,-0.0121,-0.0133,-0.0139,-0.0185,-0.0177,-0.018,-0.0182,-0.0183,-0.0244,-0.0244,0,0,0,0,0,0,0.0081,0.0067,0.0032,0.0028,0.0043,-0.0001,-0.0008,-0.0012,-0.0071,-0.008,-0.0043,-0.0046,-0.0127,-0.0135,-0.0143,-0.0162,-0.018,-0.0183,-0.0185,-0.0244,-0.0244,-0.0244,0,0,0,0,0,0,0.0082,0.0078,0.0034,0.0046,0.0039,-0.0001,-0.0005,-0.0013,-0.0025,-0.0077,-0.0087,-0.0047,-0.0128,-0.0138,-0.0166,-0.0166,-0.0185,-0.0188,-0.0245,-0.0244,-0.0244,-0.0195,0,0,0,0,0,0,0.0084,0.0079,0.0082,0.0047,0.0039,0.0025,-0.0005,-0.0013,-0.0027,-0.0032,-0.0084,-0.0094,-0.0129,-0.0161,-0.0169,-0.0171,-0.0191,-0.0245,-0.0245,-0.0244,-0.0197,-0.0193,-0.0189,0,0,0,0,0,0.0086,0.0094,0.0083,0.0079,0.0044,0.0025,0.0019,-0.0013,-0.0027,-0.0027,-0.0063,-0.0093,-0.0162,-0.0163,-0.0173,-0.0176,-0.0246,-0.0245,-0.0244,-0.0199,-0.0194,-0.0189,0,0,0,0,0,0,0.0116,0.0088,0.0076,0.0075,0.0055,0.0017,0.0014,-0.0006,-0.0034,-0.0039,-0.0089,-0.0101,-0.0125,-0.0153,-0.0152,-0.019,-0.0209,-0.021,-0.0171,-0.0166,-0.0162,-0.0167,-0.0193,0,0,0,0,0,0.0126,0.0124,0.0094,0.0094,0.0087,0.0053,0.0042,0.0022,-0.0008,-0.0022,-0.0058,-0.0096,-0.0129,-0.0148,-0.018,-0.0199,-0.0216,-0.0207,-0.0202,-0.0199,-0.0209,-0.0237,-0.0237,-0.0241,-0.0241,-0.0241,0,0,0.0137,0.0123,0.0121,0.0101,0.0082,0.0073,0.0044,0.0033,0.0021,-0.0028,-0.0051,-0.0082,-0.013,-0.0154,-0.0167,-0.0178,-0.0198,-0.0198,-0.0195,-0.0207,-0.0236,-0.0236,-0.0236,-0.024,-0.024,-0.024,0,0,0.0159,0.0148,0.0151,0.0138,0.0116,0.0094,0.0095,0.0062,0.0044,0.0022,-0.0017,-0.0049,-0.0093,-0.0132,-0.0157,-0.0149,-0.0174,-0.0153,-0.0142,-0.0168,-0.0168,-0.0169,-0.015,-0.0149,-0.0153,-0.0153,-0.0153,0,0.0174,0.0172,0.015,0.0149,0.0139,0.0107,0.0106,0.0085,0.0047,0.0033,0.0023,-0.0049,-0.0088,-0.013,-0.0131,-0.0143,-0.0145,-0.0156,-0.0163,-0.0164,-0.0166,-0.0147,-0.0147,-0.015,-0.0151,-0.0151,-0.0151,0,0.0191,0.019,0.0193,0.0178,0.0166,0.0164,0.0132,0.012,0.0098,0.0072,0.0035,-0.0016,-0.0058,-0.0074,-0.0105,-0.0134,-0.0125,-0.0152,-0.0175,-0.0162,-0.0142,-0.0143,-0.0147,-0.0148,-0.0148,-0.0149,0,0,0.0222,0.0208,0.0209,0.0209,0.0182,0.0178,0.0161,0.0136,0.0138,0.0089,0.0088,0.0006,-0.0016,-0.0047,-0.0085,-0.012,-0.0121,-0.0138,-0.0141,-0.0117,-0.0141,-0.0122,-0.0121,-0.0148,-0.0148,-0.0149,-0.0108,0,0.0242,0.0252,0.0232,0.0238,0.0241,0.0208,0.0202,0.0176,0.0157,0.0155,0.0086,0.0076,-0.0006,-0.0003,-0.0061,-0.0092,-0.0127,-0.0127,-0.016,-0.016,-0.0145,-0.0124,-0.0154,-0.0121,-0.0109,-0.011,-0.011,0,0.0262,0.0268,0.028,0.0277,0.0276,0.0273,0.0266,0.0261,0.0237,0.023,0.0186,0.0153,0.0101,0.0043,-0.0049,-0.004,-0.0098,-0.0136,-0.0136,-0.0144,-0.0145,-0.0141,-0.0123,-0.0318,-0.0111,-0.0111,-0.0111,0,0.03,0.03,0.0314,0.0311,0.0302,0.0301,0.03,0.0282,0.0314,0.0296,0.0345,0.0237,0.0262,0.0129,0.0048,0.0003,-0.0023,-0.0091,-0.0135,-0.0132,-0.018,-0.018,-0.0362,-0.0176,-0.0176,-0.0176,-0.0176,0,0.0328,0.034,0.0336,0.0346,0.0378,0.0351,0.0396,0.0381,0.0414,0.0499,0.0401,0.0469,0.0287,0.0256,0.0106,0.0017,0.0022,-0.0128,-0.013,-0.0158,-0.0156,-0.0348,-0.0451,-0.0174,-0.0175,-0.0175,-0.0175,0,0.0366,0.0361,0.0384,0.0388,0.0399,0.0425,0.0487,0.0537,0.0556,0.0678,0.0697,0.0679,0.0637,0.0465,0.0317,0.0155,-0.008,-0.0014,-0.0005,-0.001,-0.0281,-0.0378,-0.0538,-0.0623,-0.0083,-0.0082,-0.0082,0,0.0386,0.0403,0.0432,0.047,0.0476,0.0525,0.0582,0.0606,0.0694,0.083,0.0919,0.0922,0.0954,0.0748,0.0443,0.0195,-0.001,0.0007,-0.0125,-0.0297,-0.0407,-0.0485,-0.0552,-0.0148,-0.0148,-0.0148,-0.0148,0,0.0435,0.0444,0.0473,0.0561,0.062,0.0703,0.0795,0.0895,0.0984,0.1107,0.1283,0.1321,0.1123,0.0873,0.0528,0.0313,-0.0151,-0.0002,-0.0207,-0.0498,-0.057,-0.065,-0.0138,-0.0149,-0.0149,-0.0149,-0.0149,-0.0149,0.0484,0.0526,0.0587,0.0675,0.0755,0.0902,0.1014,0.1144,0.133,0.1549,0.1557,0.1648,0.1239,0.0749,0.045,-0.0149,-0.0148,-0.0358,-0.0459,-0.0519,-0.0632,-0.0093,-0.0096,-0.0095,-0.0095,-0.0095,-0.0094,0,0.0574,0.063,0.0709,0.0835,0.0961,0.098,0.1182,0.1322,0.1577,0.1731,0.1871,0.1703,0.1192,0.0641,-0.0145,-0.0538,-0.0724,-0.0762,-0.0929,-0.0975,-0.0524,-0.0562,-0.0633,-0.0633,-0.0633,-0.0633,-0.0633,-0.0632,0.0632,0.0739,0.079,0.1016,0.111,0.1318,0.1454,0.1645,0.1788,0.1981,0.201,0.2001,0.1553,0.0157,-0.0784,-0.0998,-0.13,-0.1347,-0.1464,-0.122,-0.1192,-0.1166,-0.1229,-0.1439,-0.144,-0.1901,-0.1905,-0.1909]}],[{"header":{"parameterUnit":"m.s-1","parameterCategory":2,"la1":30.2991,"la2":30.254,"lo1":-89.0895,"lo2":-89.0444,"dy":0.0017,"dx":0.0017,"nx":28,"ny":28,"refTime":"2025-11-19T09:00:00:Z","depth":"2","parameterNumber":2,"parameterNumberName":"U-component_of_CURRENTS"},"data":[0,0,0,0,0,0,0,0,0,0,0,0,0,0,0,0,0,0,0,0,0,0,0,0,0,0,0,0,0,0,0,0,0,0,0,0,0,0,0,0,0,0,0,0,0,0,0,0,0,0,0,0,0,0,0,0,0,0,0.1843,0.1843,0,0.1873,0.1873,0.1873,0.1882,0.1882,0.1882,0.1882,0.1911,0.1912,0.1913,0,0,0,0,0,0,0,0,0,0,0,0,0,0.1772,0.1773,0.1842,0.1843,0.1844,0.1873,0.1873,0.1873,0.1882,0.1882,0.1882,0.1882,0.1911,0.1912,0.1913,0,0,0,0,0,0,0,0,0,0,0,0,0,0.1799,0.1774,0.1842,0.1854,0.1856,0.1872,0.1873,0.1873,0.1881,0.1882,0.1882,0.1882,0.1911,0.1912,0.1913,0.1915,0,0,0.1916,0.1916,0,0,0,0,0,0,0,0,0.1798,0.1802,0.1852,0.1853,0.1855,0.1876,0.1859,0.1888,0.1881,0.1868,0.1882,0.1882,0.1901,0.1903,0.1904,0.1916,0.1918,0.1916,0.1916,0.1917,0.1917,0,0,0,0,0,0,0,0.1796,0.18,0.1851,0.1852,0.1855,0.1851,0.1855,0.1864,0.1881,0.1869,0.1871,0.1879,0.1902,0.1903,0.1905,0.1918,0.1916,0.1917,0.1917,0.1918,0.1961,0.1961,0,0,0,0,0,0,0.18,0.1799,0.185,0.1852,0.183,0.1852,0.1857,0.1867,0.1881,0.1884,0.1879,0.188,0.1901,0.1904,0.1906,0.1949,0.1917,0.1918,0.1918,0.196,0.1961,0.1961,0,0,0,0,0,0,0.1798,0.1804,0.1849,0.1828,0.1834,0.1854,0.1865,0.1867,0.1881,0.1889,0.1891,0.1892,0.1901,0.1904,0.1927,0.1949,0.1918,0.1919,0.1959,0.196,0.1961,0.2009,0,0,0,0,0,0,0.1796,0.1803,0.1813,0.1829,0.1836,0.1866,0.1865,0.1868,0.1887,0.1888,0.1901,0.1903,0.1902,0.1926,0.1928,0.1949,0.192,0.1959,0.196,0.1961,0.2007,0.2012,0.2016,0,0,0,0,0,0.1793,0.1804,0.1813,0.1819,0.1848,0.1867,0.187,0.1881,0.1887,0.1894,0.1907,0.1903,0.1934,0.1927,0.193,0.1952,0.1958,0.1959,0.1961,0.2005,0.2011,0.2016,0,0,0,0,0,0,0.1777,0.1807,0.1816,0.1836,0.1855,0.187,0.1877,0.189,0.1904,0.1906,0.1914,0.1917,0.1942,0.1938,0.1931,0.1965,0.1944,0.1946,0.1977,0.1982,0.1987,0.1999,0.1921,0,0,0,0,0,0.1779,0.1797,0.1822,0.1838,0.1847,0.1865,0.1875,0.1885,0.1901,0.1908,0.1921,0.1932,0.1946,0.1959,0.1963,0.1987,0.2019,0.2001,0.2005,0.2009,0.202,0.2076,0.2087,0.1965,0.1965,0.1965,0,0,0.1776,0.1797,0.1806,0.1836,0.1848,0.187,0.1871,0.1889,0.1914,0.1909,0.1942,0.1946,0.1954,0.1979,0.199,0.1982,0.2066,0.2011,0.2014,0.2023,0.2078,0.209,0.2101,0.1966,0.1966,0.1966,0,0,0.1781,0.1798,0.1815,0.1834,0.1862,0.1875,0.1886,0.1909,0.1923,0.1953,0.1958,0.1979,0.1998,0.2014,0.2023,0.2055,0.2084,0.2053,0.2094,0.2148,0.2159,0.2169,0.2256,0.2273,0.206,0.206,0.2061,0,0.1777,0.1807,0.1821,0.1845,0.1866,0.1882,0.1906,0.1925,0.1956,0.1976,0.1968,0.2016,0.2017,0.2066,0.2074,0.2068,0.2115,0.2076,0.2156,0.2166,0.2176,0.2262,0.2281,0.2063,0.2063,0.2062,0.2062,0,0.1796,0.1824,0.1834,0.1874,0.1895,0.1917,0.1948,0.1973,0.1992,0.2014,0.206,0.2068,0.2104,0.2103,0.21,0.2167,0.2186,0.2154,0.2148,0.2192,0.228,0.2298,0.2066,0.2066,0.2065,0.2064,0,0,0.1776,0.1836,0.1841,0.1869,0.1914,0.1934,0.1978,0.2023,0.2068,0.2087,0.2149,0.2163,0.2176,0.2187,0.2191,0.2232,0.2342,0.2227,0.2229,0.2324,0.2501,0.2424,0.2437,0.2328,0.2331,0.2333,0.2549,0,0.1787,0.1837,0.1867,0.1918,0.1944,0.1981,0.2025,0.2069,0.2109,0.2171,0.2191,0.2244,0.2208,0.2241,0.2275,0.2323,0.2388,0.2289,0.2436,0.2441,0.2374,0.2454,0.2271,0.2438,0.2567,0.257,0.2572,0,0.1796,0.1831,0.1878,0.1951,0.1966,0.2,0.2081,0.2127,0.2208,0.2244,0.2298,0.2326,0.2402,0.2356,0.2481,0.2425,0.2474,0.2504,0.2513,0.2434,0.2396,0.2407,0.2467,0.2603,0.26,0.2598,0.2596,0,0.1771,0.1843,0.1881,0.1903,0.1981,0.2015,0.2063,0.2144,0.2196,0.2306,0.2366,0.244,0.2504,0.2562,0.2607,0.2572,0.2742,0.27,0.2689,0.2686,0.2554,0.2533,0.2803,0.2802,0.2802,0.2801,0.2801,0,0.177,0.1803,0.1874,0.1894,0.1952,0.2012,0.2086,0.215,0.2251,0.2324,0.2406,0.2484,0.2557,0.2646,0.2674,0.2742,0.2804,0.2726,0.2736,0.2566,0.2545,0.2686,0.2669,0.2809,0.2808,0.2806,0.2805,0,0.1735,0.1781,0.1827,0.1908,0.1939,0.1978,0.2087,0.2142,0.2256,0.2364,0.2409,0.2553,0.268,0.2746,0.2865,0.2834,0.2897,0.2903,0.2712,0.2692,0.2806,0.279,0.2953,0.2952,0.2951,0.295,0.295,0,0.1724,0.1748,0.1821,0.1844,0.188,0.1953,0.2002,0.2122,0.2186,0.2392,0.2439,0.2616,0.2695,0.2851,0.286,0.2934,0.2941,0.2779,0.2651,0.2829,0.2823,0.2807,0.2792,0.2531,0.2527,0.2523,0.2521,0,0.1704,0.1725,0.1753,0.1802,0.1848,0.191,0.1996,0.2043,0.2194,0.2296,0.2445,0.2536,0.2707,0.2691,0.2768,0.2766,0.2744,0.2714,0.2979,0.2487,0.2438,0.2428,0.2427,0.2492,0.2495,0.2497,0.2499,0.25,0.1675,0.1687,0.1719,0.1763,0.181,0.1858,0.1883,0.1976,0.2068,0.2191,0.2338,0.2416,0.25,0.2526,0.2491,0.2479,0.2649,0.2536,0.2543,0.2555,0.2434,0.2381,0.2407,0.2409,0.2411,0.2413,0.2415,0,0.1641,0.1662,0.1689,0.1725,0.1742,0.1799,0.187,0.1875,0.1938,0.2059,0.2157,0.207,0.2101,0.2184,0.214,0.2159,0.2111,0.2067,0.1993,0.2026,0.2055,0.1902,0.1738,0.1735,0.1733,0.173,0,0,0.1621,0.1623,0.164,0.1652,0.1681,0.1689,0.1711,0.1721,0.1782,0.1785,0.1815,0.1989,0.2123,0.1887,0.1892,0.1807,0.1883,0.174,0.2296,0.2243,0.2267,0.2356,0.2164,0,0,0,0,0]},{"header":{"parameterUnit":"m.s-1","parameterCategory":2,"la1":30.2991,"la2":30.254,"lo1":-89.0895,"lo2":-89.0444,"dy":0.0017,"dx":0.0017,"nx":28,"ny":28,"refTime":"2025-11-19T09:00:00:Z","depth":"2","parameterNumber":3,"parameterNumberName":"V-component_of_CURRENTS"},"data":[0,0,0,0,0,0,0,0,0,0,0,0,0,0,0,0,0,0,0,0,0,0,0,0,0,0,0,0,0,0,0,0,0,0,0,0,0,0,0,0,0,0,0,0,0,0,0,0,0,0,0,0,0,0,0,0,0,0,-0.015,-0.015,0,-0.0213,-0.0213,-0.0214,-0.0256,-0.0256,-0.0257,-0.0257,-0.0353,-0.0355,-0.0358,0,0,0,0,0,0,0,0,0,0,0,0,0,-0.0106,-0.0106,-0.015,-0.015,-0.0151,-0.0212,-0.0213,-0.0214,-0.0256,-0.0256,-0.0257,-0.0257,-0.0352,-0.0355,-0.0358,0,0,0,0,0,0,0,0,0,0,0,0,0,-0.0143,-0.0107,-0.015,-0.0179,-0.0182,-0.0212,-0.0213,-0.0214,-0.0256,-0.0256,-0.0257,-0.0257,-0.0352,-0.0355,-0.0358,-0.0373,0,0,-0.0369,-0.0371,0,0,0,0,0,0,0,0,-0.0141,-0.0145,-0.0174,-0.0177,-0.0181,-0.0226,-0.0233,-0.0269,-0.0256,-0.0229,-0.0257,-0.0257,-0.0313,-0.032,-0.0331,-0.0378,-0.0382,-0.0369,-0.0372,-0.0373,-0.0374,0,0,0,0,0,0,0,-0.0138,-0.0142,-0.0175,-0.0175,-0.0179,-0.0203,-0.0208,-0.024,-0.0269,-0.0231,-0.0234,-0.024,-0.0315,-0.0328,-0.0334,-0.0383,-0.0369,-0.0373,-0.0375,-0.0376,-0.0451,-0.0451,0,0,0,0,0,0,-0.0127,-0.014,-0.0173,-0.0177,-0.016,-0.0203,-0.0209,-0.0212,-0.0268,-0.0277,-0.024,-0.0242,-0.0322,-0.033,-0.0338,-0.0355,-0.0373,-0.0376,-0.0378,-0.0451,-0.0451,-0.0451,0,0,0,0,0,0,-0.0125,-0.0129,-0.0171,-0.016,-0.0166,-0.0203,-0.0206,-0.0213,-0.0226,-0.0274,-0.0284,-0.0245,-0.0322,-0.0333,-0.0364,-0.036,-0.0378,-0.0381,-0.0451,-0.0451,-0.0451,-0.0393,0,0,0,0,0,0,-0.0124,-0.0128,-0.0126,-0.0159,-0.0167,-0.0183,-0.0206,-0.0214,-0.0228,-0.0232,-0.0282,-0.0292,-0.0323,-0.0359,-0.0368,-0.0365,-0.0384,-0.0452,-0.0451,-0.0451,-0.0395,-0.0391,-0.0387,0,0,0,0,0,-0.0122,-0.0116,-0.0125,-0.0129,-0.0162,-0.0183,-0.0189,-0.0217,-0.0228,-0.023,-0.0265,-0.029,-0.0364,-0.0361,-0.0372,-0.037,-0.0452,-0.0451,-0.0451,-0.0397,-0.0392,-0.0387,0,0,0,0,0,0,-0.0095,-0.012,-0.0131,-0.0133,-0.0154,-0.019,-0.0194,-0.0213,-0.0242,-0.0245,-0.0291,-0.0302,-0.0328,-0.0357,-0.0353,-0.0391,-0.0411,-0.0413,-0.0366,-0.0362,-0.0358,-0.0344,-0.0387,0,0,0,0,0,-0.0087,-0.0089,-0.0118,-0.0118,-0.0126,-0.0159,-0.017,-0.0188,-0.0218,-0.0231,-0.0266,-0.0303,-0.0335,-0.0354,-0.0387,-0.0408,-0.0432,-0.0413,-0.0409,-0.0406,-0.0402,-0.0437,-0.0436,-0.045,-0.045,-0.045,0,0,-0.0077,-0.009,-0.0092,-0.0113,-0.0131,-0.0136,-0.0167,-0.0179,-0.0184,-0.0237,-0.0254,-0.0291,-0.0338,-0.0361,-0.0375,-0.0385,-0.0412,-0.0406,-0.0402,-0.04,-0.0437,-0.0436,-0.0434,-0.045,-0.045,-0.045,0,0,-0.0055,-0.0068,-0.0062,-0.0075,-0.0096,-0.0116,-0.0117,-0.0149,-0.0165,-0.0187,-0.0225,-0.0257,-0.0305,-0.0337,-0.036,-0.0355,-0.039,-0.0366,-0.0336,-0.037,-0.0369,-0.0368,-0.0384,-0.0385,-0.0364,-0.0363,-0.0363,0,-0.0041,-0.0037,-0.0063,-0.006,-0.0065,-0.0103,-0.0096,-0.0118,-0.0156,-0.0166,-0.0183,-0.0253,-0.0293,-0.0323,-0.0323,-0.0345,-0.0365,-0.0348,-0.0364,-0.0364,-0.0364,-0.0381,-0.0383,-0.0361,-0.0361,-0.0361,-0.0362,0,-0.0016,-0.0012,-0.0008,-0.0015,-0.0025,-0.0025,-0.0055,-0.0067,-0.009,-0.0114,-0.0147,-0.0203,-0.0242,-0.0262,-0.0293,-0.0315,-0.0328,-0.0353,-0.0372,-0.0359,-0.0378,-0.0381,-0.0357,-0.0358,-0.0358,-0.0359,0,0,0.0014,0.0011,0.0013,0.002,-0.0,-0.0004,-0.001,-0.0027,-0.0022,-0.0071,-0.0071,-0.0141,-0.0171,-0.0199,-0.0245,-0.0279,-0.0299,-0.0314,-0.0317,-0.0322,-0.0362,-0.0389,-0.0396,-0.0329,-0.0329,-0.033,-0.0368,0,0.0043,0.0066,0.0052,0.0072,0.0082,0.0052,0.0054,0.0033,0.0011,0.0002,-0.0062,-0.0082,-0.0148,-0.016,-0.0207,-0.0274,-0.0308,-0.0285,-0.038,-0.0382,-0.0403,-0.0401,-0.0367,-0.04,-0.0372,-0.0372,-0.0373,0,0.0072,0.0085,0.0114,0.0124,0.0125,0.0129,0.0131,0.0129,0.0103,0.0088,0.0049,0.0002,-0.0055,-0.0106,-0.0222,-0.0205,-0.0277,-0.0334,-0.0338,-0.0387,-0.0417,-0.0413,-0.0408,-0.0379,-0.0378,-0.0378,-0.0378,0,0.011,0.0127,0.0155,0.0157,0.0161,0.0168,0.017,0.0156,0.0175,0.0149,0.0171,0.0074,0.0054,-0.0063,-0.0194,-0.0205,-0.0314,-0.0344,-0.0436,-0.0438,-0.044,-0.0441,-0.0423,-0.0423,-0.0423,-0.0423,-0.0423,0,0.0147,0.0168,0.0177,0.0192,0.0233,0.0215,0.0256,0.0247,0.026,0.0306,0.0224,0.0238,0.0064,-0.0022,-0.0159,-0.0306,-0.0292,-0.0428,-0.0454,-0.0418,-0.0417,-0.0428,-0.0428,-0.0424,-0.0424,-0.0424,-0.0423,0,0.0184,0.0189,0.0224,0.024,0.0254,0.0283,0.033,0.0364,0.0369,0.0433,0.0435,0.0366,0.0252,0.0074,-0.0107,-0.0242,-0.0392,-0.0448,-0.0388,-0.0407,-0.0497,-0.0494,-0.0547,-0.0549,-0.055,-0.0551,-0.0552,0,0.0205,0.0229,0.0269,0.0303,0.0314,0.036,0.0403,0.0419,0.0471,0.0516,0.0559,0.0474,0.0413,0.0133,-0.0117,-0.0359,-0.0392,-0.0483,-0.0512,-0.0493,-0.0512,-0.0507,-0.0502,-0.0482,-0.0482,-0.0482,-0.0482,0,0.0249,0.0261,0.0292,0.0365,0.0416,0.0485,0.055,0.0605,0.0646,0.0693,0.0735,0.0687,0.0443,0.0193,-0.0142,-0.0306,-0.0449,-0.0495,-0.049,-0.0461,-0.0436,-0.0453,-0.045,-0.0483,-0.0483,-0.0483,-0.0483,-0.0483,0.0281,0.0317,0.0363,0.043,0.0504,0.0599,0.0662,0.0731,0.0814,0.0885,0.0849,0.0803,0.053,0.0104,-0.0174,-0.045,-0.0455,-0.0553,-0.055,-0.0547,-0.0539,-0.0518,-0.0578,-0.0578,-0.0578,-0.0579,-0.0579,0,0.0325,0.0366,0.0429,0.0516,0.0601,0.0636,0.0758,0.0816,0.091,0.0963,0.0976,0.0746,0.0464,0.0174,-0.0234,-0.0504,-0.0516,-0.0579,-0.0527,-0.0525,-0.0523,-0.0512,-0.0545,-0.0545,-0.0545,-0.0546,0,0,0.0348,0.0411,0.0442,0.0579,0.0653,0.0776,0.0847,0.0928,0.099,0.1018,0.1006,0.0926,0.057,0.0289,-0.0073,-0.0297,-0.0349,-0.0346,-0.0349,-0.0245,-0.0239,-0.0489,-0.0468,0,0,0,0,0]}],[{"header":{"parameterUnit":"m.s-1","parameterCategory":2,"la1":30.2991,"la2":30.254,"lo1":-89.0895,"lo2":-89.0444,"dy":0.0017,"dx":0.0017,"nx":28,"ny":28,"refTime":"2025-11-19T09:00:00:Z","depth":"4","parameterNumber":2,"parameterNumberName":"U-component_of_CURRENTS"},"data":[0,0,0,0,0,0,0,0,0,0,0,0,0,0,0,0,0,0,0,0,0,0,0,0,0,0,0,0,0,0,0,0,0,0,0,0,0,0,0,0,0,0,0,0,0,0,0,0,0,0,0,0,0,0,0,0,0,0,0.1109,0.1109,0,0.1164,0.1164,0.1165,0.1213,0.1213,0.1214,0.1215,0.1273,0.1274,0.1275,0,0,0,0,0,0,0,0,0,0,0,0,0,0.1039,0.104,0.1108,0.1109,0.111,0.1164,0.1164,0.1165,0.1213,0.1213,0.1214,0.1215,0.1272,0.1274,0.1275,0,0,0,0,0,0,0,0,0,0,0,0,0,0.1079,0.1041,0.1108,0.1141,0.1144,0.1164,0.1165,0.1165,0.1212,0.1213,0.1214,0.1215,0.1272,0.1273,0.1275,0.1266,0,0,0.1279,0.128,0,0,0,0,0,0,0,0,0.1076,0.1081,0.1135,0.1139,0.1143,0.1183,0.1162,0.1199,0.1212,0.1186,0.1215,0.1216,0.1243,0.1247,0.1254,0.1268,0.1271,0.128,0.128,0.1281,0.1281,0,0,0,0,0,0,0,0.1074,0.1079,0.113,0.1136,0.114,0.1151,0.1158,0.1169,0.1208,0.1188,0.1192,0.1199,0.1245,0.1252,0.1256,0.1272,0.1279,0.1281,0.1282,0.1282,0.1365,0.1366,0,0,0,0,0,0,0.1068,0.1076,0.1128,0.1131,0.1112,0.1152,0.1159,0.1168,0.1208,0.1215,0.1198,0.1201,0.1249,0.1254,0.1258,0.1327,0.1281,0.1282,0.1283,0.1364,0.1365,0.1367,0,0,0,0,0,0,0.1066,0.1072,0.1126,0.1106,0.1113,0.1152,0.1162,0.1169,0.1204,0.1216,0.1223,0.1229,0.125,0.1256,0.1296,0.1326,0.1283,0.1284,0.1362,0.1364,0.1366,0.1414,0,0,0,0,0,0,0.1064,0.1071,0.1087,0.1105,0.1114,0.1155,0.1162,0.117,0.1205,0.121,0.1243,0.1248,0.1251,0.1293,0.1297,0.1328,0.1286,0.136,0.1363,0.1365,0.1411,0.1418,0.1423,0,0,0,0,0,0.1061,0.1076,0.1088,0.1095,0.1132,0.1155,0.1162,0.1191,0.1206,0.1225,0.1252,0.1249,0.1312,0.1296,0.13,0.1331,0.1359,0.1362,0.1365,0.1408,0.1416,0.1423,0,0,0,0,0,0,0.1056,0.1083,0.1096,0.112,0.1144,0.1164,0.1188,0.1204,0.1239,0.1253,0.1263,0.127,0.1316,0.1316,0.1298,0.1362,0.1336,0.1339,0.1367,0.1375,0.1381,0.1378,0.1287,0,0,0,0,0,0.1061,0.1082,0.1105,0.1128,0.1142,0.1169,0.1188,0.1208,0.1235,0.1253,0.1276,0.1302,0.1325,0.1345,0.1362,0.1396,0.1402,0.142,0.1426,0.1431,0.1432,0.1472,0.1482,0.1376,0.1376,0.1376,0,0,0.1064,0.1084,0.1096,0.1129,0.1153,0.1176,0.1184,0.122,0.1246,0.1252,0.1304,0.1324,0.1339,0.138,0.14,0.1389,0.1466,0.1435,0.144,0.1437,0.1476,0.1486,0.1495,0.1378,0.1378,0.1378,0,0,0.1073,0.1102,0.112,0.1143,0.1183,0.1199,0.1214,0.125,0.1278,0.1321,0.1335,0.1375,0.1411,0.1431,0.1443,0.1492,0.1494,0.1503,0.1537,0.1576,0.1585,0.1593,0.1617,0.1626,0.151,0.151,0.151,0,0.1077,0.1103,0.1129,0.1153,0.1176,0.1211,0.1234,0.1264,0.131,0.1338,0.1347,0.1422,0.1433,0.1484,0.1503,0.1506,0.1525,0.1507,0.1584,0.1592,0.1599,0.1622,0.1632,0.1513,0.1512,0.1512,0.1512,0,0.1092,0.1123,0.1139,0.118,0.1206,0.1237,0.1274,0.1315,0.1353,0.1383,0.1452,0.1478,0.1524,0.1537,0.1535,0.1597,0.1594,0.1585,0.1564,0.1613,0.1633,0.1643,0.1517,0.1516,0.1515,0.1514,0,0,0.107,0.1135,0.1144,0.117,0.1225,0.1247,0.1299,0.1352,0.14,0.1452,0.1514,0.1558,0.1587,0.1602,0.1617,0.1649,0.1714,0.1644,0.1645,0.1665,0.1801,0.1715,0.1717,0.1727,0.1729,0.173,0.1796,0,0.1076,0.1119,0.1153,0.1202,0.1227,0.128,0.1325,0.1381,0.1439,0.1509,0.1555,0.1619,0.1609,0.1649,0.168,0.1708,0.1742,0.1697,0.1753,0.1754,0.1669,0.1725,0.1736,0.1803,0.1805,0.1807,0.1808,0,0.1073,0.1106,0.1149,0.122,0.1238,0.1277,0.1364,0.1412,0.151,0.156,0.1634,0.1677,0.1744,0.1727,0.1801,0.1779,0.1796,0.1808,0.1811,0.1717,0.1685,0.1744,0.1825,0.1824,0.1822,0.1821,0.182,0,0.1032,0.1102,0.1139,0.1162,0.1245,0.1287,0.134,0.1433,0.149,0.1607,0.167,0.1746,0.1807,0.1839,0.1872,0.185,0.1945,0.1915,0.1851,0.1845,0.188,0.1871,0.1967,0.1967,0.1967,0.1967,0.1967,0,0.1011,0.1045,0.1131,0.1151,0.121,0.1277,0.1358,0.1425,0.1537,0.1614,0.1702,0.1772,0.1842,0.1904,0.1908,0.1913,0.1979,0.1865,0.1861,0.1899,0.1892,0.1887,0.1877,0.1969,0.1969,0.1968,0.1968,0,0.0957,0.1014,0.1064,0.1159,0.1192,0.1238,0.1361,0.142,0.1538,0.1645,0.169,0.1817,0.1895,0.1948,0.201,0.1958,0.1969,0.1955,0.2003,0.1999,0.1831,0.1822,0.1879,0.1876,0.1874,0.1873,0.1871,0,0.093,0.0951,0.1054,0.1091,0.1141,0.1224,0.128,0.1404,0.1471,0.1659,0.17,0.1832,0.1902,0.1916,0.1973,0.1986,0.1963,0.1951,0.1872,0.1834,0.1825,0.1819,0.1814,0.1868,0.1867,0.1867,0.1866,0,0.0878,0.0926,0.097,0.1044,0.1109,0.1176,0.1272,0.1311,0.1464,0.1582,0.1678,0.1735,0.1826,0.1863,0.1897,0.1897,0.1944,0.1929,0.1932,0.1857,0.1821,0.1813,0.181,0.1859,0.186,0.1861,0.1861,0,0.0843,0.086,0.0927,0.0989,0.1064,0.1114,0.1171,0.1257,0.1336,0.1534,0.1563,0.1702,0.1813,0.182,0.185,0.1849,0.1811,0.1737,0.1749,0.1758,0.1688,0.1622,0.1606,0,0,0,0,0,0.0803,0.0821,0.0868,0.0933,0.1006,0.1055,0.116,0.1224,0.1367,0.1397,0.1478,0.1557,0.1626,0.1693,0.1666,0.1793,0.1812,0.1755,0.1731,0.182,0.1828,0.1757,0,0,0,0,0,0,0.0777,0.0818,0.0841,0.0877,0.0913,0.0986,0.1049,0.1145,0.1168,0.1315,0.1353,0.147,0.1546,0.1625,0.1639,0.1659,0.1614,0.1838,0.1834,0.1816,0.1823,0.183,0.1759,0,0,0,0,0]},{"header":{"parameterUnit":"m.s-1","parameterCategory":2,"la1":30.2991,"la2":30.254,"lo1":-89.0895,"lo2":-89.0444,"dy":0.0017,"dx":0.0017,"nx":28,"ny":28,"refTime":"2025-11-19T09:00:00:Z","depth":"4","parameterNumber":3,"parameterNumberName":"V-component_of_CURRENTS"},"data":[0,0,0,0,0,0,0,0,0,0,0,0,0,0,0,0,0,0,0,0,0,0,0,0,0,0,0,0,0,0,0,0,0,0,0,0,0,0,0,0,0,0,0,0,0,0,0,0,0,0,0,0,0,0,0,0,0,0,-0.0074,-0.0074,0,-0.0121,-0.0121,-0.0122,-0.0154,-0.0154,-0.0155,-0.0155,-0.0232,-0.0234,-0.0235,0,0,0,0,0,0,0,0,0,0,0,0,0,-0.0044,-0.0044,-0.0074,-0.0074,-0.0075,-0.0121,-0.0121,-0.0122,-0.0154,-0.0154,-0.0155,-0.0155,-0.0231,-0.0233,-0.0236,0,0,0,0,0,0,0,0,0,0,0,0,0,-0.0071,-0.0044,-0.0074,-0.0096,-0.0098,-0.012,-0.0121,-0.0122,-0.0154,-0.0154,-0.0155,-0.0155,-0.023,-0.0233,-0.0236,-0.0248,0,0,-0.0244,-0.0246,0,0,0,0,0,0,0,0,-0.007,-0.0072,-0.0092,-0.0094,-0.0097,-0.0131,-0.0139,-0.0166,-0.0154,-0.0134,-0.0155,-0.0155,-0.02,-0.0206,-0.0214,-0.0251,-0.0255,-0.0245,-0.0246,-0.0248,-0.0248,0,0,0,0,0,0,0,-0.0068,-0.0071,-0.0093,-0.0093,-0.0096,-0.0114,-0.0118,-0.0144,-0.0166,-0.0135,-0.0138,-0.0142,-0.0202,-0.0211,-0.0216,-0.0256,-0.0245,-0.0247,-0.0249,-0.025,-0.0324,-0.0325,0,0,0,0,0,0,-0.0058,-0.0069,-0.0092,-0.0094,-0.0083,-0.0115,-0.0119,-0.0121,-0.0165,-0.0172,-0.0142,-0.0143,-0.0207,-0.0213,-0.0219,-0.0237,-0.0248,-0.025,-0.0252,-0.0324,-0.0324,-0.0325,0,0,0,0,0,0,-0.0058,-0.006,-0.009,-0.0082,-0.0087,-0.0114,-0.0116,-0.0121,-0.0134,-0.0169,-0.0177,-0.0149,-0.0207,-0.0215,-0.0245,-0.0241,-0.0252,-0.0254,-0.0324,-0.0324,-0.0325,-0.0273,0,0,0,0,0,0,-0.0056,-0.0059,-0.0059,-0.0081,-0.0087,-0.0101,-0.0116,-0.0122,-0.0136,-0.0138,-0.0178,-0.0185,-0.0208,-0.0241,-0.0248,-0.0245,-0.0256,-0.0323,-0.0324,-0.0325,-0.0274,-0.0271,-0.0269,0,0,0,0,0,-0.0055,-0.0052,-0.0059,-0.0062,-0.0085,-0.0101,-0.0106,-0.0127,-0.0136,-0.014,-0.0168,-0.0184,-0.0249,-0.0243,-0.0252,-0.0249,-0.0323,-0.0324,-0.0324,-0.0275,-0.0272,-0.0269,0,0,0,0,0,0,-0.004,-0.0055,-0.0063,-0.0065,-0.0081,-0.0106,-0.0111,-0.0126,-0.0151,-0.0155,-0.0189,-0.0198,-0.0223,-0.0246,-0.0239,-0.0274,-0.0289,-0.0291,-0.0249,-0.0246,-0.0243,-0.0215,-0.0259,0,0,0,0,0,-0.0036,-0.0036,-0.0056,-0.0057,-0.0063,-0.0087,-0.0097,-0.011,-0.0134,-0.0146,-0.0173,-0.0205,-0.0232,-0.0246,-0.0275,-0.0293,-0.0317,-0.0299,-0.0296,-0.0293,-0.0278,-0.0309,-0.0307,-0.0327,-0.0327,-0.0327,0,0,-0.003,-0.0039,-0.0039,-0.0054,-0.0068,-0.0067,-0.0094,-0.0105,-0.0104,-0.015,-0.0162,-0.0199,-0.0236,-0.0257,-0.027,-0.0274,-0.0305,-0.0294,-0.0292,-0.0277,-0.0309,-0.0307,-0.0305,-0.0327,-0.0327,-0.0327,0,0,-0.0014,-0.0027,-0.0019,-0.0028,-0.0043,-0.0057,-0.0058,-0.0083,-0.0094,-0.0113,-0.0145,-0.0175,-0.0219,-0.0239,-0.0256,-0.0257,-0.0293,-0.0274,-0.0234,-0.0265,-0.0263,-0.0261,-0.0305,-0.0308,-0.027,-0.0269,-0.0269,0,-0.0007,0.0002,-0.002,-0.0013,-0.0012,-0.0047,-0.0035,-0.0051,-0.0083,-0.0087,-0.0111,-0.017,-0.0205,-0.0221,-0.0223,-0.0249,-0.0278,-0.024,-0.0259,-0.0258,-0.0258,-0.0303,-0.0307,-0.0267,-0.0267,-0.0268,-0.0268,0,0.0018,0.0025,0.0029,0.0031,0.0027,0.0029,0.001,0.0001,-0.0021,-0.004,-0.0067,-0.0119,-0.015,-0.0171,-0.0197,-0.0209,-0.0238,-0.0253,-0.0261,-0.0252,-0.0301,-0.0306,-0.0264,-0.0264,-0.0265,-0.0266,0,0,0.0036,0.0047,0.0048,0.0063,0.0053,0.0054,0.0058,0.0053,0.0057,0.0015,0.0013,-0.0039,-0.0072,-0.0093,-0.0136,-0.0162,-0.0194,-0.02,-0.0203,-0.0232,-0.0274,-0.0271,-0.0277,-0.0214,-0.0214,-0.0215,-0.0316,0,0.0064,0.0095,0.0091,0.0122,0.0137,0.0119,0.0129,0.0118,0.0093,0.0078,0.0028,-0.0,-0.0041,-0.0064,-0.0093,-0.0173,-0.0202,-0.0166,-0.0287,-0.0291,-0.028,-0.028,-0.0215,-0.0319,-0.032,-0.0321,-0.0322,0,0.0091,0.0111,0.0149,0.0177,0.0183,0.0193,0.0204,0.0206,0.0178,0.0158,0.0124,0.0073,0.0025,-0.0013,-0.0123,-0.0101,-0.0174,-0.0234,-0.024,-0.0252,-0.0296,-0.0329,-0.0331,-0.033,-0.033,-0.0329,-0.0328,0,0.0119,0.0152,0.0187,0.0195,0.0217,0.0233,0.024,0.0228,0.0234,0.0201,0.0189,0.0125,0.0076,-0.0007,-0.0139,-0.0133,-0.0268,-0.0279,-0.0343,-0.0346,-0.034,-0.0341,-0.0341,-0.0341,-0.0341,-0.034,-0.034,0,0.015,0.0178,0.0203,0.0222,0.0265,0.0265,0.0296,0.0293,0.0285,0.0289,0.0228,0.0204,0.0075,-0.0023,-0.0126,-0.0256,-0.0263,-0.033,-0.0364,-0.0321,-0.0317,-0.0345,-0.0344,-0.0344,-0.0343,-0.0343,-0.0342,0,0.017,0.0188,0.0229,0.0263,0.0278,0.0303,0.0335,0.035,0.0338,0.0339,0.0329,0.0246,0.0125,-0.0013,-0.0173,-0.0246,-0.0367,-0.0411,-0.0368,-0.0399,-0.0426,-0.0422,-0.0477,-0.0478,-0.0478,-0.0479,-0.0479,0,0.0182,0.0205,0.0256,0.0281,0.0297,0.0335,0.0362,0.0375,0.0388,0.0363,0.0361,0.0253,0.0182,-0.0038,-0.0182,-0.0376,-0.0397,-0.0465,-0.042,-0.041,-0.0437,-0.0432,-0.0427,-0.048,-0.048,-0.048,-0.048,0,0.02,0.0215,0.0246,0.0298,0.0335,0.0382,0.0416,0.0434,0.0442,0.0434,0.039,0.0282,0.0143,-0.0024,-0.0188,-0.0322,-0.0419,-0.047,-0.0469,-0.0427,-0.0414,-0.0439,-0.0434,-0.0482,-0.0481,-0.0481,-0.0481,0,0.0203,0.0223,0.0259,0.0304,0.0355,0.0402,0.043,0.0447,0.0464,0.0444,0.0424,0.0287,0.0202,0.0001,-0.0146,-0.0282,-0.03,-0.0331,-0.0338,-0.0338,-0.0262,-0.0222,-0.0252,0,0,0,0,0,0.0197,0.0214,0.0261,0.0308,0.0362,0.0392,0.0451,0.0473,0.0485,0.0468,0.0452,0.0332,0.0129,0.0036,-0.0095,-0.0162,-0.0337,-0.0321,-0.0379,-0.0491,-0.0489,-0.0422,0,0,0,0,0,0,0.0188,0.0224,0.025,0.03,0.0332,0.0392,0.0434,0.0453,0.0447,0.0443,0.034,0.0297,0.0097,0.0198,-0.0102,-0.0145,-0.0197,-0.0416,-0.0419,-0.0492,-0.049,-0.0489,-0.042,0,0,0,0,0]}]]